MOLNIYA 3-41

Last updated on Jan. 25, 2021, 10:42 a.m. UTC

1 21706U 91065A   21024.97484966 -.00000593  00000-0  00000+0 0  9996
2 21706  64.1312 218.8130 6713260 261.9848  22.9622  2.04354704216530
UTC
Height (km)
Latitude
Longitude
Inclination
Orbital Period
UTC large
Height (km)
Speed (km/s)
/
Latitude / Longitude
Inclination (degrees)
Orbital Period (minutes)
Azimuth
Elevation
Range (km)
Doppler Factor
iOS Compass Heading
iOS Angle

Next 30 passes for location: Hong Kong

Rise time Rise Azimuth (degrees) Set time Set Azimuth (degrees) Duration Max altitude (degrees)

No matching passes for this satellites